Location: Hermaringen
(48.5952°N, 10.2585°E)
Time: 19:59:12
(UTC+00:00)

Iridium 4 Rocket - Pass Details

Date: 18 November 2025
Orbit: 579 x 888 km, 86.9° (Epoch: 10 December)

Event Time Altitude Azimuth Distance (km) Brightness Sun altitude
Rises 16:12:01 0° 190° (S) 3,227 7.2 -6.2°
Reaches altitude 10° 16:14:28 10° 194° (SSW) 2,256 6.5 -6.6°
Maximum altitude 16:19:25 62° 275° (W) 785 3.9 -7.3°
Drops below altitude 10° 16:23:59 10° 357° (N) 2,079 5.6 -8.1°
Sets 16:26:10 0° 1° (N) 2,953 6.3 -8.4°
